Simultaneous Nadir Overpasses (SNOs) Predictions

Prediction of SNOs between NOAA-20 and METOP-C Satellite Orbit:

Table of predicted SNOs for the next 14.0 days since TLE Epoch: 11/18/2021
Index Date (NOAA-20) Time (NOAA-20) Lat,Lon (NOAA-20) SZA (NOAA-20 ) Date (METOP-C) Time (METOP-C) Lat,Lon (METOP-C) SZA (METOP-C ) Distance(km) Time Diff (sec)
1 12/01/2021 07:36:30 73.37, 56.22 95.24 12/01/2021 07:37:36 73.32, 59.01 95.12 88.85 66
2 12/01/2021 08:27:12 -73.26,-136.22 84.87 12/01/2021 08:28:20 -73.20,-133.94 85.01 73.46 68
3 12/01/2021 09:17:54 73.08, 31.50 94.94 12/01/2021 09:19:04 73.00, 32.96 94.82 48.23 70
4 12/01/2021 10:08:36 -72.97,-160.96 85.17 12/01/2021 10:09:47 -72.93,-159.87 85.25 35.80 71
5 12/01/2021 10:59:18 72.78, 6.75 94.64 12/01/2021 11:00:31 72.73, 7.05 94.57 11.44 73
6 12/01/2021 11:50:00 -72.68, 174.29 85.47 12/01/2021 11:51:13 -72.70, 174.32 85.46 3.19 73
7 12/01/2021 12:40:46 72.69, -18.43 94.55 12/01/2021 12:41:54 72.66, -18.44 94.51 3.61 68
8 12/01/2021 13:31:30 -72.68, 148.90 85.45 12/01/2021 13:32:35 -72.68, 148.94 85.46 1.54 65
9 12/01/2021 14:22:16 72.70, -43.82 94.57 12/01/2021 14:23:15 72.69, -43.72 94.55 3.54 59
10 12/01/2021 15:12:59 -72.64, 123.61 85.49 12/01/2021 15:13:57 -72.66, 123.56 85.47 2.78 58
11 12/01/2021 16:03:45 72.65, -69.10 94.53 12/01/2021 16:04:37 72.67, -69.10 94.54 1.42 52
12 12/01/2021 16:54:29 -72.65, 98.22 85.47 12/01/2021 16:55:19 -72.64, 98.18 85.48 1.61 50
13 12/01/2021 17:45:15 72.66, -94.49 94.55 12/01/2021 17:45:59 72.65, -94.48 94.53 1.83 44
14 12/01/2021 18:35:59 -72.66, 72.83 85.45 12/01/2021 18:36:40 -72.67, 72.90 85.44 2.88 41
15 12/01/2021 19:26:44 72.62,-119.78 94.52 12/01/2021 19:27:21 72.63,-119.86 94.52 2.74 37
16 12/01/2021 20:17:29 -72.67, 47.44 85.43 12/01/2021 20:18:02 -72.65, 47.52 85.45 3.12 33
17 12/01/2021 21:08:14 72.63,-145.17 94.54 12/01/2021 21:08:43 72.61,-145.24 94.52 3.37 29
18 12/01/2021 21:58:58 -72.62, 22.15 85.47 12/01/2021 21:59:24 -72.63, 22.14 85.46 1.01 26
19 12/01/2021 22:49:44 72.64,-170.56 94.56 12/01/2021 22:50:04 72.64,-170.52 94.55 1.43 20
20 12/01/2021 23:40:28 -72.63, -3.24 85.45 12/01/2021 23:40:46 -72.61, -3.24 85.47 2.26 18
21 12/02/2021 00:31:13 72.59, 164.15 94.52 12/02/2021 00:31:26 72.62, 164.10 94.55 3.09 13
22 12/02/2021 01:21:57 -72.59, -28.53 85.48 12/02/2021 01:22:08 -72.59, -28.62 85.48 3.29 11
23 12/02/2021 02:12:43 72.60, 138.76 94.54 12/02/2021 02:12:48 72.60, 138.72 94.54 1.53 5



Historial Predications of SNOs between NOAA-20 and METOP-C
